Location: Sternwarte ZA, Rosenfeld-Brittheim
(48.2889°N, 8.6789°E)
Time: 09:54:06
(UTC+02:00)

ISS - Pass Details

Date: 24 May 2018
Orbit: 402 x 407 km, 51.6° (Epoch: 27 May)

Event Time Altitude Azimuth Distance (km) Brightness Sun altitude
Rises 22:50:30 0° 258° (WSW) 2,317 0.3 -13.0°
Reaches altitude 10° 22:52:36 10° 261° (W) 1,458 -0.7 -13.2°
Maximum altitude 22:55:51 63° 344° (NNW) 453 -3.4 -13.5°
Drops below altitude 10° 22:59:06 10° 67° (ENE) 1,460 -1.1 -13.8°
Sets 23:01:12 0° 70° (ENE) 2,321 -0.1 -14.0°
